Location: ???????
(52.3000°N, 54.4667°E)
Time: 09:43:22
(UTC+00:00)

Cosmos 614 Rocket - Pass Details

Date: 24 January 2020
Orbit: 732 x 764 km, 74.1° (Epoch: 18 February)

Event Time Altitude Azimuth Distance (km) Brightness Sun altitude
Rises 15:57:56 0° 333° (NNW) 3,219 7.6 -27.8°
Reaches altitude 10° 16:00:18 10° 331° (NNW) 2,294 6.8 -28.2°
Enters shadow 16:05:11 69° 275° (W) 817 4.2 -28.9°
